Total_Precipitation_Accumulation
0.01 0.04 0.18 0.36 0.79 1.13 1.12 0.70 0.52 0.50 0.55 0.53 0.47 0.44 0.47 0.43 0.55 0.98 0.67 0.38 0.16 0.06 0.04 0.10 0.17 0.15 0.13 0.12 0.12 0.12 0.12 0.11 0.11 0.10 0.08 0.07 0.06 0.06 0.06 0.07 0.07 0.09 0.11 0.10 0.10 0.11 0.12 0.14 0.14
0.02 0.08 0.24 0.63 0.96 1.11 1.07 0.61 0.35 0.44 0.53 0.66 0.64 0.50 0.40 0.41 0.41 0.33 0.30 0.42 0.15 0.08 0.06 0.06 0.13 0.14 0.11 0.10 0.11 0.12 0.11 0.11 0.10 0.08 0.07 0.06 0.07 0.08 0.08 0.08 0.08 0.10 0.12 0.11 0.10 0.09 0.11 0.11 0.13
0.03 0.12 0.26 0.53 0.66 0.72 0.77 0.47 0.35 0.31 0.49 0.72 0.69 0.46 0.46 0.48 0.39 0.26 0.25 0.34 0.17 0.12 0.07 0.07 0.12 0.12 0.11 0.11 0.11 0.11 0.11 0.10 0.09 0.08 0.07 0.07 0.08 0.11 0.12 0.12 0.12 0.12 0.14 0.14 0.13 0.11 0.11 0.11 0.14
0.05 0.16 0.34 0.38 0.27 0.23 0.35 0.41 0.43 0.42 0.61 0.74 0.60 0.50 0.49 0.47 0.41 0.27 0.24 0.35 0.22 0.19 0.12 0.11 0.15 0.15 0.13 0.12 0.11 0.12 0.13 0.11 0.11 0.09 0.09 0.09 0.10 0.12 0.12 0.13 0.15 0.15 0.16 0.15 0.15 0.14 0.14 0.16 0.18
0.04 0.17 0.34 0.26 0.16 0.14 0.18 0.25 0.33 0.49 0.67 0.77 0.66 0.63 0.64 0.46 0.38 0.31 0.24 0.35 0.28 0.23 0.20 0.20 0.22 0.20 0.16 0.14 0.14 0.14 0.13 0.13 0.11 0.10 0.10 0.11 0.12 0.13 0.13 0.13 0.14 0.14 0.18 0.20 0.21 0.20 0.19 0.22 0.25
0.04 0.12 0.22 0.14 0.07 0.09 0.15 0.20 0.35 0.54 0.56 0.64 0.74 0.81 0.73 0.51 0.44 0.37 0.35 0.42 0.35 0.25 0.24 0.30 0.29 0.25 0.20 0.19 0.19 0.17 0.16 0.14 0.14 0.13 0.14 0.15 0.17 0.16 0.15 0.15 0.14 0.15 0.17 0.20 0.24 0.26 0.26 0.27 0.32
0.02 0.05 0.08 0.06 0.03 0.06 0.15 0.27 0.32 0.45 0.51 0.72 0.77 0.79 0.78 0.71 0.57 0.46 0.56 0.78 0.68 0.50 0.39 0.38 0.33 0.29 0.25 0.26 0.27 0.25 0.23 0.20 0.19 0.17 0.17 0.18 0.22 0.21 0.22 0.26 0.23 0.21 0.24 0.26 0.28 0.29 0.36 0.37 0.38
0.01 0.02 0.04 0.03 0.02 0.06 0.14 0.22 0.31 0.43 0.55 0.62 0.71 0.82 0.83 0.76 0.65 0.68 0.86 1.18 1.22 1.05 0.80 0.54 0.46 0.45 0.37 0.31 0.32 0.32 0.28 0.25 0.25 0.25 0.24 0.26 0.31 0.35 0.39 0.39 0.36 0.35 0.38 0.39 0.38 0.36 0.41 0.49 0.50
0.00 0.02 0.02 0.02 0.01 0.08 0.17 0.22 0.27 0.32 0.41 0.63 0.81 0.96 0.87 0.69 0.71 0.90 1.07 1.30 1.40 1.24 1.06 0.85 0.77 0.64 0.54 0.48 0.40 0.43 0.40 0.38 0.38 0.46 0.47 0.49 0.58 0.62 0.68 0.62 0.63 0.61 0.65 0.70 0.71 0.69 0.73 0.76 0.72
0.00 0.01 0.01 0.00 0.00 0.03 0.10 0.20 0.26 0.36 0.56 1.02 1.29 1.17 0.94 0.82 0.91 1.13 1.27 1.25 1.32 1.32 1.20 1.18 1.04 0.91 0.85 0.77 0.76 0.80 0.74 0.76 0.74 0.90 0.92 1.00 1.09 0.92 0.71 0.88 1.04 1.00 1.10 1.18 1.26 1.44 1.35 1.19 1.00
0.00 0.00 0.00 0.00 0.00 0.02 0.05 0.13 0.23 0.41 0.78 1.30 1.53 1.24 1.07 1.02 1.07 1.19 1.47 1.55 1.62 1.60 1.44 1.46 1.31 1.19 1.21 1.19 1.14 1.15 1.20 1.26 1.28 1.32 1.39 1.58 1.51 1.25 1.04 1.23 1.49 1.48 1.52 1.56 1.81 2.01 1.63 1.56 1.57
0.00 0.00 0.00 0.00 0.01 0.01 0.04 0.11 0.29 0.55 0.95 1.23 1.15 0.97 1.01 1.17 1.25 1.40 1.66 1.97 2.02 2.09 1.98 1.75 1.63 1.73 1.70 1.54 1.46 1.31 1.19 1.20 1.28 1.39 1.45 1.77 1.83 1.75 1.66 1.69 1.61 1.77 1.88 2.09 2.11 2.12 1.96 1.95 1.88
0.00 0.00 0.00 0.00 0.01 0.03 0.06 0.13 0.33 0.65 0.86 0.92 0.80 0.82 1.09 1.34 1.42 1.79 2.23 2.36 2.29 2.49 2.63 2.45 2.36 2.24 1.99 1.88 1.57 1.36 1.24 1.13 1.09 1.28 1.44 1.72 1.90 1.94 2.02 1.73 1.64 1.59 1.77 2.01 1.98 1.86 1.94 2.08 2.11
0.00 0.00 0.01 0.01 0.02 0.04 0.07 0.14 0.33 0.56 0.65 0.66 0.72 0.93 1.13 1.46 1.58 2.01 2.58 2.71 2.83 3.01 3.19 3.13 3.05 2.76 2.40 2.10 1.84 1.70 1.43 1.22 1.07 1.20 1.25 1.61 1.90 1.86 1.73 1.71 1.70 1.61 1.74 1.80 1.85 1.89 2.09 2.18 2.28
0.00 0.01 0.06 0.07 0.05 0.06 0.07 0.19 0.40 0.60 0.70 0.64 0.78 0.97 1.31 1.65 1.85 2.18 2.47 2.85 3.26 3.58 3.64 3.57 3.57 3.33 3.10 2.82 2.41 1.99 1.72 1.42 1.34 1.25 1.19 1.49 1.74 1.78 1.76 1.67 1.55 1.58 1.67 1.77 1.81 1.84 1.95 1.86 1.93
0.02 0.05 0.15 0.16 0.10 0.10 0.11 0.39 0.69 0.68 0.69 0.71 0.83 1.13 1.44 1.71 2.09 2.27 2.54 2.88 3.26 3.76 4.10 4.13 3.63 3.47 3.36 3.19 2.81 2.40 2.15 1.97 1.76 1.40 1.26 1.29 1.46 1.55 1.56 1.42 1.39 1.48 1.39 1.40 1.46 1.44 1.47 1.52 1.65
0.05 0.09 0.16 0.25 0.16 0.13 0.24 0.70 1.00 0.76 0.61 0.71 0.93 1.15 1.53 1.80 2.21 2.33 2.47 2.68 3.13 3.95 4.75 4.70 4.15 3.68 3.36 3.18 3.05 2.81 2.47 2.09 1.77 1.50 1.35 1.21 1.13 1.04 1.06 1.01 1.03 1.07 1.06 1.06 1.01 1.18 1.24 1.31 1.43
0.05 0.10 0.22 0.35 0.22 0.20 0.30 0.67 0.70 0.63 0.79 0.77 0.82 1.02 1.32 1.44 1.75 2.02 2.28 2.70 3.44 4.51 5.25 5.15 4.51 3.93 3.51 3.21 2.94 2.68 2.31 1.98 1.59 1.46 1.32 1.07 0.99 0.87 0.82 0.77 0.78 0.74 0.76 0.82 0.86 0.92 0.98 1.00 1.04
0.04 0.09 0.22 0.26 0.20 0.28 0.36 0.56 0.66 0.76 0.94 0.94 0.80 0.83 1.12 1.31 1.57 1.92 2.48 3.27 4.28 5.10 5.34 4.82 4.26 3.79 3.32 2.85 2.23 1.78 1.56 1.39 1.17 0.99 0.84 0.74 0.69 0.69 0.71 0.61 0.59 0.55 0.55 0.58 0.60 0.67 0.71 0.71 0.77
0.06 0.08 0.19 0.26 0.18 0.21 0.35 0.65 0.94 0.91 0.83 0.81 0.81 0.74 0.92 1.30 1.73 2.33 3.30 3.92 4.12 4.16 3.84 3.43 3.08 2.78 2.33 1.88 1.53 1.33 1.20 1.01 0.85 0.72 0.66 0.58 0.52 0.51 0.49 0.48 0.45 0.44 0.45 0.50 0.51 0.52 0.52 0.52 0.59
0.10 0.10 0.18 0.25 0.15 0.16 0.36 0.79 1.06 1.07 0.83 0.69 0.66 0.60 0.86 1.29 1.86 2.62 3.18 3.25 2.91 2.50 2.28 2.25 2.22 1.87 1.69 1.53 1.33 1.23 1.14 0.94 0.77 0.65 0.54 0.45 0.38 0.37 0.38 0.37 0.37 0.41 0.41 0.45 0.48 0.45 0.44 0.43 0.43
0.09 0.06 0.06 0.09 0.15 0.33 0.52 1.02 1.16 0.95 0.87 0.71 0.66 0.64 0.75 1.04 1.33 1.75 1.98 1.81 1.74 1.77 1.79 1.92 1.93 1.65 1.54 1.37 1.09 0.88 0.78 0.69 0.58 0.52 0.49 0.46 0.38 0.33 0.30 0.30 0.29 0.29 0.33 0.41 0.39 0.42 0.43 0.41 0.34
0.04 0.03 0.04 0.11 0.22 0.41 0.60 0.84 0.94 0.73 0.86 0.68 0.52 0.49 0.54 0.70 0.79 0.87 0.96 0.97 1.06 1.15 1.36 1.61 1.71 1.64 1.47 1.27 1.12 0.98 0.79 0.71 0.67 0.64 0.61 0.55 0.46 0.37 0.32 0.32 0.29 0.25 0.24 0.27 0.30 0.39 0.44 0.44 0.38
0.03 0.05 0.12 0.23 0.39 0.89 0.84 0.81 1.00 0.89 0.88 0.66 0.47 0.38 0.43 0.57 0.64 0.66 0.64 0.68 0.81 0.93 1.06 1.26 1.44 1.57 1.52 1.35 1.17 1.07 0.92 0.81 0.73 0.68 0.64 0.56 0.47 0.42 0.36 0.34 0.32 0.29 0.25 0.22 0.23 0.30 0.38 0.43 0.44
0.05 0.07 0.24 0.57 0.98 1.13 0.70 0.77 1.03 0.76 0.66 0.49 0.28 0.23 0.34 0.53 0.64 0.67 0.59 0.51 0.52 0.63 0.75 0.80 0.92 1.12 1.21 1.18 1.05 0.99 0.95 0.79 0.63 0.57 0.53 0.51 0.44 0.39 0.33 0.30 0.30 0.28 0.27 0.26 0.25 0.26 0.30 0.35 0.41
0.05 0.04 0.11 0.21 0.32 0.51 0.65 1.03 1.15 0.79 0.51 0.27 0.15 0.17 0.27 0.38 0.40 0.43 0.39 0.32 0.26 0.31 0.45 0.53 0.65 0.78 0.94 0.95 0.88 0.79 0.76 0.62 0.53 0.57 0.46 0.44 0.45 0.44 0.41 0.33 0.28 0.27 0.26 0.25 0.27 0.25 0.26 0.30 0.34
0.05 0.03 0.04 0.07 0.11 0.31 0.64 0.93 0.87 0.67 0.47 0.28 0.18 0.14 0.13 0.15 0.16 0.20 0.25 0.24 0.20 0.21 0.29 0.39 0.53 0.65 0.78 0.85 0.81 0.67 0.61 0.56 0.53 0.52 0.46 0.41 0.47 0.47 0.45 0.39 0.32 0.29 0.29 0.28 0.28 0.26 0.27 0.29 0.32
0.05 0.04 0.04 0.05 0.11 0.22 0.48 0.85 0.99 0.79 0.53 0.29 0.21 0.16 0.14 0.14 0.13 0.13 0.15 0.18 0.16 0.16 0.21 0.33 0.46 0.58 0.66 0.71 0.68 0.57 0.60 0.55 0.55 0.52 0.49 0.45 0.43 0.43 0.42 0.37 0.32 0.33 0.33 0.31 0.32 0.30 0.32 0.34 0.39
0.07 0.06 0.06 0.05 0.07 0.13 0.32 0.52 0.47 0.39 0.31 0.23 0.20 0.14 0.12 0.11 0.09 0.08 0.09 0.13 0.14 0.15 0.18 0.24 0.33 0.44 0.49 0.53 0.53 0.51 0.51 0.50 0.51 0.52 0.49 0.46 0.45 0.45 0.41 0.38 0.35 0.34 0.33 0.34 0.37 0.35 0.34 0.35 0.41
0.09 0.09 0.09 0.08 0.07 0.09 0.15 0.32 0.26 0.25 0.24 0.19 0.16 0.12 0.10 0.08 0.07 0.06 0.08 0.10 0.13 0.16 0.16 0.19 0.25 0.29 0.34 0.39 0.41 0.44 0.47 0.47 0.45 0.45 0.46 0.47 0.45 0.45 0.44 0.41 0.36 0.31 0.29 0.35 0.41 0.40 0.37 0.38 0.40